Location: Burzi?i
(45.0869°N, 16.0577°E)
Time: 10:55:55
(UTC+00:00)

ATLAS 2AS CENTAUR R/B - Pass Details

Date: 29 October 2020
Orbit: 939 x 1273 km, 63.7° (Epoch: 23 November)

Event Time Altitude Azimuth Distance (km) Brightness Sun altitude
Rises 18:15:33 0° 322° (NW) 4,150 6.4 -26.6°
Reaches altitude 10° 18:18:27 10° 325° (NW) 3,143 5.6 -27.1°
Maximum altitude 18:25:56 66° 48° (NE) 1,227 2.7 -28.4°
Enters shadow 18:26:17 65° 65° (ENE) 1,231 2.7 -28.5°
